222P/LINEAR (2004)

Japanese version
Home page
Updated on September 12, 2009

---------------------------------------------------------------------

* Profile

Designation 222P/2004 X1
Discovery Date December 7, 2004
Magnitude 18.7 mag
Discoverer Lincoln Laboratory Near-Earth Asteroid Research project

* Pictures

* Orbital Elements

Epoch 2004 Nov. 11.0 TT = JDT 2453320.5
T 2004 Nov. 1.91934 TT                                  MPC
q   0.7824018            (2000.0)            P               Q
n   0.20386211     Peri.  345.43417     +0.99150838     +0.12956367
a   2.8592033      Node     7.14945     -0.10854224     +0.87176274
e   0.7263567      Incl.    5.14118     -0.07162199     +0.47248595
P   4.83

* Finding Charts

* Magnitudes Graph

        m1 = 18.0 + 5 log d + 10.0 log r

---------------------------------------------------------------------

The orbital elements are published on M.P.E.C. 2009-P09.
The charts are made with StellaNavigator Ver.2.0 for Windows (AstroArts / ASCII).
The magnitudes graphs are made with Comet for Windows.

---------------------------------------------------------------------

Copyright(C) Seiichi Yoshida (comet@aerith.net). All rights reserved.